Weather History for Bloomington, IN

Change the Weather History Date:

Wednesday, January 11, 2006

  Actual Average Record
Temperature  
Mean Temperature 42 °F 29 °F  
Max Temperature 48 °F 38 °F 62 °F (2005)
Min Temperature 37 °F 20 °F -5 °F (1997)
Degree Days  
Heating Degree Days 22 36  
Month to date heating degree days 396  
Since 1 July heating degree days 2469  
Cooling Degree Days 0 0  
Month to date cooling degree days 0  
Year to date cooling degree days 0  
Moisture  
Dew Point 37 °F    
Average Humidity 83    
Maximum Humidity 93    
Minimum Humidity 60    
Precipitation  
Precipitation 0.11 in 0.13 in 0.82 in (2013)
Month to date precipitation 1.40  
Year to date precipitation 1.40  
Sea Level Pressure  
Sea Level Pressure 29.95 in    
Wind  
Wind Speed 14 mph (SSW)    
Max Wind Speed 21 mph    
Max Gust Speed 28 mph    
Visibility 7 miles    
Events Rain    
T = Trace of Precipitation, MM = Missing Value Source: NWS Daily Summary

Daily Weather History Graph

Daily Weather History Graph

Search for Another Location

Airport:

Trip Planner

Search our weather history database for the weather conditions in past years. The results will help you decide how hot, cold, wet, or windy it might be!

Date:

Astronomy

Jan. 11, 2006 Rise Set
Actual Time 8:05 AM EST 5:43 PM EST
Civil Twilight 7:35 AM EST 6:13 PM EST
Nautical Twilight 7:02 AM EST 6:46 PM EST
Astronomical Twilight 6:30 AM EST 7:18 PM EST
Moon 3:04 PM EST (1/11) 6:07 AM EST (1/11)
Length of Visible Light 10h 37m
Length of Day
9h 38m
Waxing Gibbous, 93% of the Moon is Illuminated
Jan 11
Waxing Gibbous
Jan 14
Full
Jan 22
Last Quarter
Jan 29
New
Feb 5
First Quarter

Hourly Weather History & Observations

Time (EST) Temp. Windchill Dew Point Humidity Pressure Visibility Wind Dir Wind Speed Gust Speed Precip Events Conditions
12:53 AM 48.9 °F - 45.0 °F 86% 29.89 in 10.0 mi SE 11.5 mph - 0.03 in Rain Light Rain
1:21 AM 48.2 °F - 46.4 °F 93% 29.90 in 10.0 mi SSE 10.4 mph - 0.00 in   Overcast
1:53 AM 48.9 °F - 46.0 °F 90% 29.91 in 10.0 mi South 13.8 mph - 0.00 in Rain Light Rain
2:03 AM 48.2 °F - 46.4 °F 93% 29.91 in 10.0 mi SSW 12.7 mph - 0.00 in   Overcast
2:53 AM 46.9 °F - 42.1 °F 83% 29.91 in 7.0 mi SSW 13.8 mph 23.0 mph 0.00 in Rain Light Rain
3:37 AM 44.6 °F 39.2 °F 41.0 °F 87% 29.91 in 5.0 mi SW 10.4 mph - 0.01 in Rain Light Rain
3:53 AM 45.0 °F 37.4 °F 41.0 °F 86% 29.93 in 3.0 mi SW 18.4 mph 23.0 mph 0.02 in Rain Light Rain
3:59 AM 44.6 °F 37.2 °F 39.2 °F 81% 29.92 in 2.5 mi SSW 17.3 mph 25.3 mph 0.00 in Rain Light Rain
4:05 AM 42.8 °F 35.1 °F 39.2 °F 87% 29.92 in 3.0 mi SSW 16.1 mph 24.2 mph 0.01 in Rain Light Rain
4:20 AM 42.8 °F 34.0 °F 37.4 °F 81% 29.92 in 10.0 mi SW 20.7 mph 24.2 mph 0.01 in   Overcast
4:53 AM 42.1 °F 34.9 °F 37.9 °F 85% 29.94 in 7.0 mi SSW 13.8 mph 24.2 mph 0.01 in   Overcast
5:42 AM 41.0 °F 33.5 °F 37.4 °F 87% 29.93 in 5.0 mi SW 13.8 mph 27.6 mph N/A   Overcast
5:53 AM 41.0 °F 32.2 °F 37.0 °F 86% 29.94 in 6.0 mi SW 18.4 mph 23.0 mph N/A   Overcast
6:53 AM 39.9 °F 30.8 °F 37.0 °F 89% 29.95 in 5.0 mi SW 18.4 mph - 0.00 in   Overcast
7:53 AM 39.9 °F 31.1 °F 36.0 °F 86% 29.96 in 4.0 mi SW 17.3 mph - 0.01 in Rain Light Rain
8:13 AM 39.2 °F 31.6 °F 35.6 °F 87% 29.96 in 5.0 mi WSW 12.7 mph 21.9 mph 0.00 in Rain Light Rain
8:34 AM 39.2 °F 31.6 °F 35.6 °F 87% 29.97 in 7.0 mi WSW 12.7 mph 21.9 mph 0.01 in   Overcast
8:53 AM 39.0 °F 30.6 °F 35.1 °F 86% 29.99 in 7.0 mi SW 15.0 mph 23.0 mph 0.01 in Rain Light Rain
9:08 AM 39.2 °F 30.8 °F 35.6 °F 87% 29.98 in 4.0 mi SW 15.0 mph - 0.01 in Rain Light Rain
9:53 AM 37.9 °F 28.5 °F 35.1 °F 89% 29.99 in 5.0 mi SSW 17.3 mph 23.0 mph 0.02 in Rain Light Rain
10:18 AM 37.4 °F 28.2 °F 35.6 °F 93% 29.99 in 2.0 mi SSW 16.1 mph 24.2 mph 0.00 in Rain Light Rain
10:35 AM 37.4 °F 28.5 °F 35.6 °F 93% 30.00 in 4.0 mi SW 15.0 mph 23.0 mph 0.01 in Rain Light Rain
10:53 AM 37.9 °F 28.2 °F 35.1 °F 89% 30.01 in 2.5 mi SSW 18.4 mph 26.5 mph 0.01 in Rain Light Rain
11:11 AM 37.4 °F 28.2 °F 35.6 °F 93% 30.00 in 4.0 mi SW 16.1 mph 26.5 mph 0.00 in   Overcast
11:53 AM 37.9 °F 28.5 °F 35.1 °F 89% 30.00 in 4.0 mi SSW 17.3 mph 23.0 mph 0.00 in   Overcast
12:53 PM 37.9 °F 29.2 °F 35.1 °F 89% 29.99 in 10.0 mi SW 15.0 mph 18.4 mph N/A   Overcast
1:53 PM 39.9 °F 32.5 °F 36.0 °F 86% 29.98 in 10.0 mi SW 12.7 mph - N/A   Overcast
2:53 PM 42.1 °F 35.2 °F 37.0 °F 82% 29.96 in 10.0 mi SW 12.7 mph 16.1 mph N/A   Overcast
3:33 PM 44.6 °F 39.7 °F 37.4 °F 76% 29.96 in 10.0 mi SSW 9.2 mph - N/A   Scattered Clouds
3:53 PM 44.1 °F 38.6 °F 37.0 °F 76% 29.97 in 10.0 mi South 10.4 mph - N/A   Partly Cloudy
4:53 PM 44.1 °F 39.0 °F 36.0 °F 73% 29.96 in 10.0 mi South 9.2 mph - N/A   Clear
5:53 PM 39.9 °F 35.1 °F 33.1 °F 77% 29.97 in 10.0 mi South 6.9 mph - N/A   Clear
6:53 PM 39.0 °F 34.8 °F 32.0 °F 76% 29.97 in 10.0 mi South 5.8 mph - N/A   Clear
7:53 PM 39.9 °F 35.1 °F 32.0 °F 73% 29.96 in 10.0 mi SSE 6.9 mph - N/A   Clear
8:53 PM 43.0 °F 35.7 °F 32.0 °F 65% 29.95 in 10.0 mi South 15.0 mph - N/A   Clear
9:53 PM 43.0 °F 36.8 °F 32.0 °F 65% 29.95 in 10.0 mi SSW 11.5 mph - N/A   Clear
10:53 PM 43.0 °F 37.2 °F 30.9 °F 62% 29.95 in 10.0 mi SSW 10.4 mph - N/A   Clear
11:53 PM 43.0 °F 36.8 °F 30.0 °F 60% 29.94 in 10.0 mi SSW 11.5 mph - N/A   Clear